Flag for Canada Weather past 2 weeks in Hamilton, Ontario, Canada

45 °F

Passing clouds.

Feels Like: 42 °F
Forecast: N/A
Wind: 5 mph from Southeast

Location: Hamilton Airport

Current Time: Nov 25, 2015 at 6:08:47 PM

Latest Report: Nov 25, 2015 at 5:00 PM

Visibility: 8 mi

Pressure: 30.48 "Hg

Humidity: 66%

Dew point: 34 °F

Location of HamiltonLocation

Historic Weather in Hamilton — Graph


Hamilton temperature yesterday

Maximum temperature yesterday: 41 °F (at 1:00 PM)
Minimum temperature yesterday: 28 °F (at 7:00 AM)
Average temperature yesterday: 34 °F

Past Weeks' High & Low Weather Summary

High61 °F (Nov 18, 1:00 PM)100% (Nov 10, 5:00 PM)30.58 "Hg (Nov 10, 5:00 PM)
Low18 °F (Nov 23, 5:00 AM)39% (Nov 19, 11:00 PM)29.34 "Hg (Nov 12, 12:00 PM)
Average41 °F78%30.06 "Hg
* Reported Nov 10 4:00 PM — Nov 25 4:00 PM, Hamilton, Weather by CustomWeather, © 2015

Note: Actual official high and low records may vary slightly from our data, if they occured in-between our weather recording intervals... More about our weather records


Hamilton weather history for previous 24 hours

Time TempWeatherWind HumidityBarometerVisibility
4:00 PM
Wed, Nov 25
48 °FPartly sunny.9 mph58%30.47 "Hg9 mi
3:00 PM50 °FPassing clouds.7 mph58%30.50 "Hg10 mi
2:00 PM50 °FPassing clouds.9 mph54%30.51 "Hg15 mi
1:00 PM48 °FPassing clouds.8 mph62%30.53 "Hg15 mi
12:00 PM46 °FScattered clouds.10 mph66%30.55 "Hg15 mi
11:00 AM45 °FPassing clouds.10 mph66%30.57 "Hg15 mi
10:00 AM41 °FPassing clouds.7 mph81%30.58 "Hg15 mi
9:00 AM34 °FPassing clouds.6 mph87%30.58 "Hg15 mi
8:00 AM28 °FScattered clouds.6 mph100%30.57 "Hg10 mi
7:00 AM28 °FIce fog.8 mph93%30.56 "Hg6 mi
6:00 AM27 °FPassing clouds.8 mph93%30.55 "Hg10 mi
5:00 AM28 °FPassing clouds.6 mph93%30.54 "Hg10 mi
4:00 AM28 °FIce fog.5 mph93%30.53 "Hg5 mi
3:00 AM27 °FIce fog.3 mph100%30.52 "Hg6 mi
2:00 AM28 °FIce fog.2 mph100%30.51 "Hg4 mi
1:00 AM28 °FIce fog.2 mph93%30.49 "Hg6 mi
12:00 AM27 °FPassing clouds.3 mph100%30.48 "Hg8 mi
11:00 PM
Tue, Nov 24
30 °FPassing clouds.5 mph93%30.48 "Hg12 mi
10:00 PM32 °FPassing clouds.2 mph93%30.47 "Hg10 mi
9:00 PM32 °FPassing clouds.6 mph93%30.46 "Hg10 mi
8:00 PM34 °FPassing clouds.6 mph87%30.45 "Hg10 mi
7:00 PM32 °FPartly cloudy.5 mph93%30.43 "Hg12 mi
6:00 PM36 °FPassing clouds.6 mph81%30.42 "Hg15 mi
Weather by CustomWeather, © 2015

See weather overviewHow to use our weather pages